Regional Weather Roundup
Issued by NWS New Orleans/Baton Rouge, LA

Home | Current Version | Previous Version | Graphics & Text | Print | Product List | Glossary On
Versions: 1 2 3 4 5 6 7 8 9 10 11 12 13 14 15 16 17 18 19 20 21 22 23 24 25 26 27 28 29 30 31 32 33 34 35 36 37 38 39 40 41 42 43 44 45 46 47 48 49 50
795
ASUS44 KLIX 270005
RWRLIX
NEW ORLEANS REGIONAL WEATHER ROUNDUP
NATIONAL WEATHER SERVICE NEW ORLEANS LA
600 PM CST MON JAN 26 2015

NOTE: "FAIR" INDICATES FEW OR NO CLOUDS BELOW 12,000 FEET WITH NO
      SIGNIFICANT WEATHER AND/OR OBSTRUCTIONS TO VISIBILITY.
      SKY/WX - SKY CONDITION AND SIGNIFICANT WEATHER.
      TMP - AIR TEMPERATURE.     DP    - DEWPOINT TEMPERATURE.
      RH  - RELATIVE HUMIDITY.   PRES  - PRESSURE.
      HI  - HEAT INDEX.          WCI   - WIND CHILL INDEX.

*  THESE STATIONS ARE NOT NWS OR FAA STATIONS AND ARE NOT UNDER
   NWS QUALITY CONTROL.

LAZ038-040-048-061>063-065>067-069-270100-
SOUTHEAST LOUISIANA

CITY           SKY/WX    TMP DP  RH WIND       PRES   REMARKS
N.O. AUDUBON     N/A     56  37  49 MISG        N/A
6HR MIN TEMP:  56; 6HR MAX TEMP:  62;

N.O. INTL ARPT PTCLDY    56  33  42 NW5       30.09R
6HR MIN TEMP:  56; 6HR MAX TEMP:  62;

N.O. LAKEFRONT CLEAR     55  45  68 W7        30.09R
6HR MIN TEMP:  55; 6HR MAX TEMP:  58;

N.O. DOWNTOWN*   N/A     59  30  33 CALM      30.09R
6HR MIN TEMP:  55; 6HR MAX TEMP:  63;

SLIDELL        CLEAR     53  37  54 CALM      30.07R
6HR MIN TEMP:  53; 6HR MAX TEMP:  66;

BATON ROUGE    CLEAR     51  34  52 W6        30.10R
6HR MIN TEMP:  51; 6HR MAX TEMP:  63;

BOOTHVILLE     CLEAR     53  40  61 NW6       30.09R
6HR MIN TEMP:  52; 6HR MAX TEMP:  59;

BELLE CHASSE   PTCLDY    56  31  38 CALM      30.08R
6HR MIN TEMP:  56; 6HR MAX TEMP:  63;

BOGALUSA*        N/A     52  35  52 NW3       30.09R
6HR MIN TEMP:  52; 6HR MAX TEMP:  63;

GALLIANO*      CLEAR     56  38  50 MISG      30.10R
6HR MIN TEMP:  56; 6HR MAX TEMP:  65;

NEW ROADS*       N/A     53  38  56 CALM      30.10S
6HR MIN TEMP:  53; 6HR MAX TEMP:  59;

GONZALES*        N/A     56  36  46 CALM      30.10R
6HR MIN TEMP:  56; 6HR MAX TEMP:  63;

HAMMOND*       CLEAR     54  34  47 CALM      30.10R
HOUMA*         CLEAR     55  36  47 NW5       30.10R
PORT FOURCHON* CLEAR     55  46  71 W15G21    30.13R

$$

MSZ070-080>082-270100-
SOUTHERN MISSISSIPPI

CITY           SKY/WX    TMP DP  RH WIND       PRES   REMARKS
MCCOMB         CLEAR     51  34  52 CALM      30.08R
6HR MIN TEMP:  51; 6HR MAX TEMP:  60;

GULFPORT       CLEAR     52  34  50 CALM      30.06R
6HR MIN TEMP:  52; 6HR MAX TEMP:  62;

BILOXI         CLEAR     55  31  40 N3        30.06R
6HR MIN TEMP:  55; 6HR MAX TEMP:  61;

PASCAGOULA     CLEAR     49  33  54 CALM      30.06
6HR MIN TEMP:  49; 6HR MAX TEMP:  62;

STENNIS ARPT*  CLEAR     48  37  66 CALM      30.07R

$$

COASTAL OBSERVATIONS
LAKE AND NEARSHORE STATIONS

STATION/POSITION TIME  TEMP    WIND        PRES    WAVE
                       AIR SEA DIR/SP/G            HT/PER
                 (UTC) (F)     (DEG/KT/KT) (MB)    (FT/S)
PASCAGOULA       0000   55     320/  4/  6 1017.4
WAVELAND YACHT   0000   57     320/  4/  5 1017.2
GRAND ISLE       0000   57 58  280/ 10/ 12 1019.3
SOUTHWEST PASS   0000   56 46  310/ 11/ 21 1019.0
NEW CANAL        0000   57 53  290/  3/  5 1019.1
SHELL BEACH      0000   56 54  270/  8/  9 1018.4

OFFSHORE STATIONS

STATION/POSITION TIME  TEMP    WIND        PRES    WAVE
                       AIR SEA DIR/SP/G            HT/PER
                 (UTC) (F)     (DEG/KT/KT) (MB)    (FT/S)

$$




USA.gov is the U.S. government's official web portal to all federal, state and local government web resources and services.